Weather History for Denali Park, AK

Change the Weather History Date:

Saturday, January 25, 2014

  Actual Average Record
Temperature  
Mean Temperature 42 °F -  
Max Temperature 50 °F 9 °F 50 °F (2014)
Min Temperature 35 °F -5 °F -50 °F (1971)
Degree Days  
Heating Degree Days 22    
Moisture  
Dew Point 34 °F    
Average Humidity 68    
Maximum Humidity 81    
Minimum Humidity 54    
Precipitation  
Precipitation 0.00 in - - ()
Sea Level Pressure  
Sea Level Pressure 30.05 in    
Wind  
Wind Speed 4 mph (SSW)    
Max Wind Speed 12 mph    
Max Gust Speed 20 mph    
Visibility 10 miles    
Events      
Averages and records for this station are not official NWS values.
T = Trace of Precipitation, MM = Missing Value Source: NWS Daily Summary

Daily Weather History Graph

Daily Weather History Graph

Search for Another Location

Airport:

Trip Planner

Search our weather history database for the weather conditions in past years. The results will help you decide how hot, cold, wet, or windy it might be!

Date:

Astronomy

Jan. 25, 2014 Rise Set
Actual Time 9:52 AM AKST 4:24 PM AKST
Civil Twilight 8:52 AM AKST 5:24 PM AKST
Nautical Twilight 7:53 AM AKST 6:23 PM AKST
Astronomical Twilight 6:57 AM AKST 7:19 PM AKST
Moon 4:29 AM AKST (1/25) 11:34 AM AKST (1/25)
Length of Visible Light 8h 31m
Length of Day
6h 32m
Waning Crescent, 32% of the Moon is Illuminated
Jan 25
Waning Crescent
Jan 30
New
Feb 6
First Quarter
Feb 14
Full
Feb 22
Last Quarter

Hourly Weather History & Observations

Time (AKST) Temp. Windchill Dew Point Humidity Pressure Visibility Wind Dir Wind Speed Gust Speed Precip Events Conditions
12:16 AM 39.2 °F 34.2 °F 33.8 °F 81% 30.11 in 10.0 mi SSE 6.9 mph - N/A   Clear
12:36 AM 39.2 °F 33.6 °F 33.8 °F 81% 30.12 in 10.0 mi South 8.1 mph - N/A   Clear
12:56 AM 39.2 °F 34.2 °F 32.0 °F 75% 30.12 in 10.0 mi South 6.9 mph - N/A   Clear
1:16 AM 39.2 °F 35.0 °F 32.0 °F 75% 30.12 in 10.0 mi South 5.8 mph - N/A   Clear
1:36 AM 39.2 °F 35.0 °F 32.0 °F 75% 30.12 in 10.0 mi South 5.8 mph - N/A   Clear
1:56 AM 39.2 °F 37.0 °F 32.0 °F 75% 30.12 in 10.0 mi SSW 3.5 mph - N/A   Clear
2:16 AM 39.2 °F 37.0 °F 32.0 °F 75% 30.12 in 10.0 mi SSE 3.5 mph - N/A   Clear
2:36 AM 39.2 °F - 30.2 °F 70% 30.13 in 10.0 mi Calm Calm - N/A   Scattered Clouds
2:56 AM 35.6 °F - 30.2 °F 81% 30.12 in 10.0 mi Calm Calm - N/A   Overcast
3:16 AM 35.6 °F - 30.2 °F 81% 30.11 in 10.0 mi Calm Calm - N/A   Mostly Cloudy
3:36 AM 35.6 °F - 30.2 °F 81% 30.11 in 10.0 mi Calm Calm - N/A   Scattered Clouds
3:56 AM 35.6 °F 32.8 °F 30.2 °F 81% 30.10 in 10.0 mi WSW 3.5 mph - N/A   Mostly Cloudy
4:16 AM 39.2 °F - 30.2 °F 70% 30.10 in 10.0 mi Calm Calm - N/A   Mostly Cloudy
4:36 AM 37.4 °F - 30.2 °F 75% 30.10 in 10.0 mi Calm Calm - N/A   Partly Cloudy
4:56 AM 39.2 °F - 32.0 °F 75% 30.10 in 10.0 mi Calm Calm - N/A   Mostly Cloudy
5:16 AM 37.4 °F - 32.0 °F 81% 30.09 in 10.0 mi Calm Calm - N/A   Overcast
5:36 AM 39.2 °F - 32.0 °F 75% 30.09 in 10.0 mi Calm Calm - N/A   Overcast
5:56 AM 39.2 °F - 33.8 °F 81% 30.09 in 10.0 mi Calm Calm - N/A   Overcast
6:16 AM 39.2 °F - 33.8 °F 81% 30.09 in 10.0 mi Calm Calm - N/A   Overcast
6:36 AM 39.2 °F 37.0 °F 33.8 °F 81% 30.08 in 10.0 mi NNE 3.5 mph - N/A   Overcast
6:56 AM 39.2 °F 37.0 °F 33.8 °F 81% 30.08 in 10.0 mi North 3.5 mph - N/A   Overcast
7:16 AM 42.8 °F - 33.8 °F 70% 30.08 in 10.0 mi Calm Calm - N/A   Overcast
7:36 AM 44.6 °F - 33.8 °F 66% 30.09 in 10.0 mi Calm Calm - N/A   Overcast
7:56 AM 42.8 °F - 33.8 °F 70% 30.08 in 10.0 mi Calm Calm - N/A   Overcast
8:16 AM 42.8 °F - 33.8 °F 70% 30.07 in 10.0 mi Calm Calm - N/A   Overcast
8:36 AM 42.8 °F - 33.8 °F 70% 30.07 in 10.0 mi Calm Calm - N/A   Overcast
8:56 AM 42.8 °F - 33.8 °F 70% 30.07 in 10.0 mi Calm Calm - N/A   Overcast
9:16 AM 42.8 °F - 33.8 °F 70% 30.07 in 10.0 mi Calm Calm - N/A   Overcast
9:36 AM 44.6 °F 42.2 °F 33.8 °F 66% 30.07 in 10.0 mi NNE 4.6 mph - N/A   Overcast
9:56 AM 44.6 °F - 33.8 °F 66% 30.07 in 10.0 mi Calm Calm - N/A   Overcast
10:16 AM 44.6 °F 41.4 °F 33.8 °F 66% 30.06 in 10.0 mi West 5.8 mph - N/A   Overcast
10:36 AM 44.6 °F 43.1 °F 33.8 °F 66% 30.06 in 10.0 mi West 3.5 mph - N/A   Scattered Clouds
10:56 AM 46.4 °F 45.2 °F 35.6 °F 66% 30.06 in 10.0 mi WNW 3.5 mph - N/A   Partly Cloudy
11:16 AM 48.2 °F - 33.8 °F 58% 30.06 in 10.0 mi North 4.6 mph - N/A   Clear
11:36 AM 48.2 °F - 35.6 °F 62% 30.06 in 10.0 mi South 6.9 mph - N/A   Clear
11:56 AM 48.2 °F - 35.6 °F 62% 30.06 in 10.0 mi SSW 5.8 mph - N/A   Partly Cloudy
12:16 PM 48.2 °F - 35.6 °F 62% 30.06 in 10.0 mi South 5.8 mph - N/A   Clear
12:36 PM 48.2 °F - 35.6 °F 62% 30.06 in 10.0 mi South 8.1 mph - N/A   Clear
12:56 PM 50.0 °F - 35.6 °F 58% 30.06 in 10.0 mi South 6.9 mph - N/A   Clear
1:16 PM 50.0 °F - 35.6 °F 58% 30.05 in 10.0 mi South 11.5 mph 17.3 mph N/A   Clear
1:36 PM 48.2 °F - 35.6 °F 62% 30.05 in 10.0 mi SSW 10.4 mph 19.6 mph N/A   Clear
1:56 PM 48.2 °F - 35.6 °F 62% 30.06 in 10.0 mi SSW 3.5 mph - N/A   Clear
2:16 PM 48.2 °F - 35.6 °F 62% 30.05 in 10.0 mi South 3.5 mph - N/A   Clear
2:36 PM 50.0 °F - 35.6 °F 58% 30.05 in 10.0 mi Calm Calm - N/A   Clear
2:56 PM 48.2 °F - 35.6 °F 62% 30.04 in 10.0 mi South 3.5 mph - N/A   Clear
3:16 PM 46.4 °F 45.2 °F 35.6 °F 66% 30.03 in 10.0 mi WSW 3.5 mph - N/A   Clear
3:36 PM 48.2 °F - 35.6 °F 62% 30.03 in 10.0 mi Calm Calm - N/A   Clear
3:56 PM 48.2 °F - 35.6 °F 62% 30.02 in 10.0 mi Calm Calm - N/A   Clear
4:16 PM 48.2 °F - 35.6 °F 62% 30.02 in 10.0 mi SSE 3.5 mph - N/A   Clear
4:36 PM 48.2 °F - 35.6 °F 62% 30.01 in 10.0 mi West 9.2 mph - N/A   Clear
4:56 PM 46.4 °F 44.3 °F 35.6 °F 66% 30.02 in 10.0 mi SW 4.6 mph - N/A   Clear
5:16 PM 46.4 °F 45.2 °F 35.6 °F 66% 30.02 in 10.0 mi North 3.5 mph - N/A   Clear
5:36 PM 44.6 °F - 33.8 °F 66% 30.01 in 10.0 mi Calm Calm - N/A   Clear
5:56 PM 42.8 °F - 33.8 °F 70% 30.00 in 10.0 mi Calm Calm - N/A   Clear
6:16 PM 46.4 °F 42.4 °F 33.8 °F 62% 29.98 in 10.0 mi West 8.1 mph - N/A   Clear
6:36 PM 48.2 °F - 33.8 °F 58% 29.97 in 10.0 mi SW 9.2 mph - N/A   Clear
6:56 PM 50.0 °F - 33.8 °F 54% 29.97 in 10.0 mi South 6.9 mph - N/A   Clear
7:16 PM 50.0 °F - 33.8 °F 54% 29.98 in 10.0 mi SSE 3.5 mph - N/A   Clear
7:36 PM 48.2 °F - 33.8 °F 58% 29.97 in 10.0 mi Calm Calm - N/A   Clear
7:56 PM 48.2 °F - 35.6 °F 62% 29.97 in 10.0 mi Calm Calm - N/A   Clear
8:16 PM 46.4 °F 45.2 °F 35.6 °F 66% 29.98 in 10.0 mi SSE 3.5 mph - N/A   Clear
8:36 PM 46.4 °F 42.9 °F 35.6 °F 66% 29.98 in 10.0 mi SE 6.9 mph - N/A   Clear
8:56 PM 48.2 °F - 35.6 °F 62% 29.98 in 10.0 mi SSE 5.8 mph - N/A   Clear
9:16 PM 46.4 °F 44.3 °F 35.6 °F 66% 29.97 in 10.0 mi SSE 4.6 mph - N/A   Clear
9:36 PM 46.4 °F 45.2 °F 35.6 °F 66% 29.96 in 10.0 mi South 3.5 mph - N/A   Clear
9:56 PM 44.6 °F - 35.6 °F 71% 29.96 in 10.0 mi Calm Calm - N/A   Clear
10:16 PM 44.6 °F 43.1 °F 35.6 °F 71% 29.96 in 10.0 mi SSW 3.5 mph - N/A   Clear
10:36 PM 44.6 °F 43.1 °F 35.6 °F 71% 29.96 in 10.0 mi South 3.5 mph - N/A   Clear
10:56 PM 44.6 °F - 35.6 °F 71% 29.96 in 10.0 mi Calm Calm - N/A   Clear
11:16 PM 44.6 °F 42.2 °F 33.8 °F 66% 29.96 in 10.0 mi WSW 4.6 mph - N/A   Clear
11:36 PM 46.4 °F 45.2 °F 33.8 °F 62% 29.96 in 10.0 mi SW 3.5 mph - N/A   Clear
11:56 PM 42.8 °F 40.1 °F 33.8 °F 70% 29.96 in 10.0 mi SW 4.6 mph - N/A   Clear